Regional Weather Roundup
Issued by NWS Little Rock, AR

Home | Current Version | Previous Version | Graphics & Text | Print | Product List | Glossary On
Versions: 1 2 3 4 5 6 7 8 9 10 11 12 13 14 15 16 17 18 19 20 21 22 23 24 25 26 27 28 29 30 31 32
000
ASUS44 KLZK 011705
RWRLZK

WEATHER ROUNDUP FOR ARKANSAS
NATIONAL WEATHER SERVICE LITTLE ROCK AR
1100 AM CST THU DEC 01 2016

NOTE: "FAIR" INDICATES FEW OR NO CLOUDS BELOW 12,000 FEET WITH NO
SIGNIFICANT WEATHER AND/OR OBSTRUCTIONS TO VISIBILITY.

ARZ001-003-010-029-011800-
NORTHWEST ARKANSAS

CITY           SKY/WX    TMP DP  RH WIND       PRES   REMARKS
FAYETTEVILLE   SUNNY     47  23  38 CALM      30.12F
FORT SMITH     SUNNY     50  26  39 CALM      30.15S
HARRISON       SUNNY     48  22  35 W9        30.12R
BENTONVILLE    SUNNY     45  23  42 CALM      30.13S
ROGERS         SUNNY     44  25  47 CALM      30.12F
SILOAM SPGS    SUNNY     45  25  45 CALM      30.12S
HIGHFILL       SUNNY     45  26  47 CALM      30.11F
SPRINGDALE     SUNNY     45  25  45 CALM      30.13F
$$

ARZ004-005-016-011800-
NORTH CENTRAL ARKANSAS

CITY           SKY/WX    TMP DP  RH WIND       PRES   REMARKS
BATESVILLE     SUNNY     52  27  37 W8        30.15S
FLIPPIN        SUNNY     48  21  34 NW8       30.10S
MTN HOME       SUNNY     46  25  43 NW8       30.11S
$$

ARZ040-041-011800-
WEST CENTRAL ARKANSAS

CITY           SKY/WX    TMP DP  RH WIND       PRES   REMARKS
MENA           SUNNY     59  23  25 W7        30.14F
MOUNT IDA      SUNNY     56  25  30 W3        30.12
$$

ARZ009-017-025-026-028-011800-
NORTHEAST ARKANSAS

CITY           SKY/WX    TMP DP  RH WIND       PRES   REMARKS
CORNING        FAIR      45  30  57 W10       30.12F
JONESBORO      SUNNY     48  29  47 W9        30.14R
NEWPORT        SUNNY     51  29  42 W8        30.15S
WALNUT RIDGE   SUNNY     48  27  43 W8        30.13S
BLYTHEVILLE    SUNNY     50  31  48 NW12      30.13S
NW BLYTHEVILLE SUNNY     46  28  49 NW8G18    30.13R
$$

ARZ022-023-033-042-044-011800-
CENTRAL ARKANSAS

CITY           SKY/WX    TMP DP  RH WIND       PRES   REMARKS
LITTLE ROCK    SUNNY     54  30  40 CALM      30.16F
N LITTLE ROCK    N/A     52  29  41 NW3       30.18S
JACKSONVILLE   SUNNY     52  29  41 W5        30.15S
SEARCY         SUNNY     53  28  38 NW3       30.17F
HOT SPRINGS    SUNNY     53  28  38 CALM      30.16F
RUSSELLVILLE   SUNNY     47  30  51 CALM      30.15S
$$

ARZ036-011800-
EAST ARKANSAS

CITY           SKY/WX    TMP DP  RH WIND       PRES   REMARKS
WEST MEMPHIS   SUNNY     51  30  44 NW8       30.15R
$$

ARZ050-053-066-070-073-011800-
SOUTHWEST ARKANSAS

CITY           SKY/WX    TMP DP  RH WIND       PRES   REMARKS
ARKADELPHIA    FAIR      51  39  63 CALM      30.18F
CAMDEN         SUNNY     59  28  31 NW3       30.18F
TEXARKANA      SUNNY     57  26  30 VRB6      30.17S
EL DORADO      SUNNY     56  32  40 CALM      30.18F
DE QUEEN       SUNNY     52  37  56 W3        30.15F
$$

ARZ056-057-069-011800-
SOUTHEAST ARKANSAS

CITY           SKY/WX    TMP DP  RH WIND       PRES   REMARKS
PINE BLUFF     SUNNY     56  30  37 W6        30.17S
STUTTGART      SUNNY     52  34  50 NW5       30.18R
MONTICELLO       N/A     55  28  35 MISG      30.18F

$$






USA.gov is the U.S. government's official web portal to all federal, state and local government web resources and services.